STARLINK-32847 (62811 NORAD) Tracking and Keplerian Element Data

This shows tracking and keplerian element data for the satellite.

Feedback or suggestion? Click here.




ElementValue
Catalog62811
NameSTARLINK-32847
Epoch Orbit289
Epoch Day34.83335648
Epoch Year2025
RAAN13.6215
Inclination53.1468
Eccentricity0.0001065
Argument of Perigee131.1852
Mean Anonmoly176.3258
Mean Motion15.86628913
Decay Rate-0.00948316
L11 62811U 25018F 25034.83335648 -.00948316 00000+0 -40633-2 0 9998
L22 62811 53.1468 13.6215 0001065 131.1852 176.3258 15.86628913 2898



Live tracking and technical data element details for STARLINK-32847 (NORAD 62811). STARLINK-32847 can be tracked NOW for your location showing map with azimuth and elevation plus other details from your city location.







IsCatalogInMostPopularTable: catalog: 62811, numindb: 4
Update: records affected: 1



GetName: 62811 STARLINK-32847

Hit Count: updated at: Sun, 09 Feb 2025 13:56:59 GMT